This demonstration page uses our WeatherBlox Daily Observations layout. Learn more.

Left ArrowRight Arrow

Hourly Observations for September 16, 2019

Temp ( °F °C ) Dew Point ( °F °C ) Humidity (%) Winds ( mph kmh ) Pressure ( in mb ) Visibility ( mi km ) Precip ( " mm )
12:54 am 00:54 Clear 72 22.2 66 18.9 82 82 S 6 9 29.96 1015 10 16 0.00 0.00
1:54 am 01:54 Clear 69 20.6 65 18.3 87 87 S 8 13 29.96 1015 10 16 0.00 0.00
2:54 am 02:54 Clear 70 21.1 64 17.8 82 82 S 6 9 29.96 1015 10 16 0.00 0.00
3:54 am 03:54 Clear 71 21.7 64 17.8 79 79 SSW 8 13 29.96 1015 10 16 0.00 0.00
4:54 am 04:54 Clear 67 19.4 63 17.2 87 87 S 7 11 29.97 1015 10 16 0.00 0.00
5:54 am 05:54 Clear 67 19.4 63 17.2 87 87 S 9 15 29.98 1015 10 16 0.00 0.00
6:54 am 06:54 Clear 68 20 63 17.2 84 84 S 7 11 29.99 1016 10 16 0.00 0.00
7:54 am 07:54 Sunny 70 21.1 64 17.8 82 82 S 8 13 30.00 1016 8 13 0.00 0.00
8:54 am 08:54 Sunny 76 24.4 65 18.3 69 69 S 13 20 30.00 1016 10 16 0.00 0.00
9:54 am 09:54 Sunny 81 27.2 65 18.3 58 58 S 9 15 30.01 1016 10 16 0.00 0.00
10:54 am 10:54 Sunny 84 28.9 65 18.3 53 53 SSW 15 24 30.00 1016 10 16 0.00 0.00
11:54 am 11:54 Sunny 87 30.6 64 17.8 46 46 SSW 16 26 29.98 1015 10 16 0.00 0.00
12:54 pm 12:54 Sunny 90 32.2 66 18.9 45 45 S 16 26 29.97 1015 10 16 0.00 0.00
1:54 pm 13:54 Sunny 92 33.3 66 18.9 43 43 S 18 30 29.94 1014 10 16 0.00 0.00
2:54 pm 14:54 Sunny 91 32.8 65 18.3 42 42 S 17 28 29.93 1014 10 16 0.00 0.00
3:54 pm 15:54 Sunny 91 32.8 67 19.4 45 45 S 17 28 29.92 1013 10 16 0.00 0.00
4:54 pm 16:54 Sunny 91 32.8 66 18.9 44 44 S 21 33 29.91 1013 10 16 0.00 0.00
5:54 pm 17:54 Sunny 89 31.7 67 19.4 48 48 SSE 20 31 29.91 1013 10 16 0.00 0.00
6:54 pm 18:54 Sunny 85 29.4 68 20 57 57 SSE 14 22 29.91 1013 10 16 0.00 0.00
7:54 pm 19:54 Clear 83 28.3 68 20 61 61 SSE 14 22 29.92 1013 10 16 0.00 0.00
8:54 pm 20:54 Clear 82 27.8 67 19.4 60 60 SSE 16 26 29.92 1013 10 16 0.00 0.00
9:54 pm 21:54 Clear 81 27.2 67 19.4 62 62 SSE 18 30 29.92 1013 10 16 0.00 0.00
10:54 pm 22:54 Clear 79 26.1 67 19.4 67 67 S 15 24 29.93 1013 10 16 0.00 0.00
11:54 pm 23:54 Clear 78 25.6 68 20 71 71 S 15 24 29.92 1013 10 16 0.00 0.00

Powered by AerisWeather